Houston, TX

4:41 PM CST on December 06, 2016 (GMT -0600)
Hobby

Weather History for KHOU - October, 2012

Change the Weather History Date:

Wednesday, October 3, 2012

  Actual Average Record
Temperature  
Mean Temperature 72 °F 75 °F  
Max Temperature 85 °F 85 °F 95 °F (1994)
Min Temperature 59 °F 65 °F 45 °F (1975)
Degree Days  
Heating Degree Days 0 0  
Month to date heating degree days 0 0  
Since 1 July heating degree days 0 1  
Cooling Degree Days 7 10  
Month to date cooling degree days 21 31  
Year to date cooling degree days 3220 2856  
Growing Degree Days 20 (Base 50)    
Moisture  
Dew Point 59 °F    
Average Humidity 67    
Maximum Humidity 100    
Minimum Humidity 34    
Precipitation  
Precipitation 0.00 in 0.17 in 3.24 in (1949)
Month to date precipitation T 0.48  
Year to date precipitation 37.82 36.47  
Sea Level Pressure  
Sea Level Pressure 30.01 in    
Wind  
Wind Speed 3 mph (SE)    
Max Wind Speed 15 mph    
Max Gust Speed 20 mph    
Visibility 10 miles    
Events      
T = Trace of Precipitation, MM = Missing Value Source: NWS Daily Summary

Daily Weather History Graph

Daily Weather History Graph

Search for Another Location

Airport or City:

Trip Planner

Search our weather history database for the weather conditions in past years. The results will help you decide how hot, cold, wet, or windy it might be!

Date:

Astronomy

Oct. 03, 2012 Rise Set
Actual Time 7:15 AM CDT 7:03 PM CDT
Civil Twilight 6:52 AM CDT 7:27 PM CDT
Nautical Twilight 6:24 AM CDT 7:55 PM CDT
Astronomical Twilight 5:56 AM CDT 8:22 PM CDT
Moon 9:15 PM CDT (10/3) 10:22 AM CDT (10/3)
Length of Visible Light 12h 35m
Length of Day
11h 47m
Waning Gibbous, 88% of the Moon is Illuminated
Oct 3
Waning Gibbous
Oct 8
Last Quarter
Oct 15
New
Oct 21
First Quarter
Oct 29
Full

Hourly Weather History & Observations

Time (CDT) Temp. Heat Index Dew Point Humidity Pressure Visibility Wind Dir Wind Speed Gust Speed Precip Events Conditions
12:53 AM 62.1 °F - 59.0 °F 90% 29.98 in 10.0 mi Calm Calm - N/A   Scattered Clouds
1:53 AM 62.1 °F - 57.9 °F 86% 29.98 in 10.0 mi Calm Calm - N/A   Partly Cloudy
2:53 AM 61.0 °F - 57.9 °F 90% 29.98 in 10.0 mi Calm Calm - N/A   Partly Cloudy
3:53 AM 60.1 °F - 57.9 °F 93% 29.97 in 10.0 mi Calm Calm - N/A   Partly Cloudy
4:53 AM 59.0 °F - 57.0 °F 93% 29.97 in 10.0 mi Calm Calm - N/A   Partly Cloudy
5:53 AM 59.0 °F - 57.9 °F 96% 29.99 in 10.0 mi Calm Calm - N/A   Partly Cloudy
6:53 AM 57.9 °F - 57.9 °F 100% 30.00 in 10.0 mi Calm Calm - N/A   Partly Cloudy
7:53 AM 60.1 °F - 57.9 °F 93% 30.00 in 10.0 mi Calm Calm - N/A   Clear
8:53 AM 69.1 °F - 61.0 °F 75% 30.02 in 10.0 mi Calm Calm - N/A   Clear
9:53 AM 73.9 °F - 55.9 °F 53% 30.04 in 10.0 mi East 3.5 mph - N/A   Clear
10:53 AM 77.0 °F - 57.0 °F 50% 30.05 in 10.0 mi East 5.8 mph - N/A   Clear
11:53 AM 80.1 °F 80.6 °F 57.9 °F 47% 30.05 in 10.0 mi South 5.8 mph - N/A   Partly Cloudy
12:53 PM 80.1 °F 80.1 °F 55.0 °F 42% 30.04 in 10.0 mi SW 8.1 mph - N/A   Partly Cloudy
1:53 PM 81.0 °F 80.8 °F 55.9 °F 42% 30.01 in 10.0 mi SE 5.8 mph - N/A   Partly Cloudy
2:53 PM 82.0 °F 82.0 °F 57.9 °F 44% 30.00 in 10.0 mi ESE 6.9 mph - N/A   Partly Cloudy
3:53 PM 81.0 °F 81.6 °F 60.1 °F 49% 29.99 in 10.0 mi ESE 11.5 mph - N/A   Scattered Clouds
4:53 PM 79.0 °F - 62.1 °F 56% 29.99 in 10.0 mi ESE 9.2 mph - N/A   Scattered Clouds
5:53 PM 79.0 °F - 62.1 °F 56% 30.00 in 10.0 mi SSE 12.7 mph - N/A   Scattered Clouds
6:53 PM 75.0 °F - 62.1 °F 64% 30.01 in 10.0 mi SSE 8.1 mph - N/A   Partly Cloudy
7:53 PM 73.0 °F - 63.0 °F 71% 30.03 in 10.0 mi SSE 4.6 mph - N/A   Clear
8:53 PM 71.1 °F - 63.0 °F 75% 30.05 in 10.0 mi SSE 3.5 mph - N/A   Clear
9:53 PM 69.1 °F - 63.0 °F 81% 30.06 in 10.0 mi SSE 4.6 mph - N/A   Clear
10:53 PM 69.1 °F - 63.0 °F 81% 30.07 in 10.0 mi SE 5.8 mph - N/A   Clear